| time (UTC) | temp C | wind direction | speed KPH | gust KPH | rain 1hr cm | rain 24hr cm | rain mn cm | humidity % | barometer mb |
| 20260507213004 | 23 | 326 | 6.4 | 16.1 | 0.00 | 0.00 | 0.00 | 95 | 1004.7 |
| 20260507211504 | 23 | 335 | 6.4 | 12.9 | 0.00 | 0.00 | 0.00 | 94 | 1004.9 |
| 20260507210004 | 23 | 337 | 8.0 | 17.7 | 0.00 | 0.00 | 0.00 | 92 | 1004.6 |
| 20260507204504 | 23 | 330 | 8.0 | 17.7 | 0.00 | 0.00 | 0.00 | 91 | 1004.4 |
| 20260507203004 | 24 | 326 | 8.0 | 17.7 | 0.00 | 0.00 | 0.00 | 88 | 1004.3 |
| 20260507201504 | 24 | 339 | 9.7 | 19.3 | 0.00 | 0.00 | 0.00 | 86 | 1004.4 |
| 20260507200004 | 25 | 349 | 8.0 | 17.7 | 0.00 | 0.00 | 0.00 | 83 | 1004.4 |
| 20260507194504 | 26 | 315 | 11.3 | 22.5 | 0.00 | 0.00 | 0.00 | 78 | 1004.1 |
| 20260507193004 | 26 | 323 | 9.7 | 19.3 | 0.00 | 0.00 | 0.00 | 77 | 1004.1 |
| 20260507191503 | 27 | 324 | 11.3 | 19.3 | 0.00 | 0.00 | 0.00 | 76 | 1004.3 |
| 20260507190005 | 27 | 328 | 11.3 | 24.1 | 0.00 | 0.00 | 0.00 | 75 | 1004.3 |
| 20260507184504 | 27 | 326 | 11.3 | 24.1 | 0.00 | 0.00 | 0.00 | 75 | 1004.3 |
| 20260507183004 | 26 | 336 | 8.0 | 14.5 | 0.00 | 0.00 | 0.00 | 76 | 1004.4 |
| 20260507181504 | 27 | 330 | 11.3 | 17.7 | 0.00 | 0.00 | 0.00 | 73 | 1004.5 |
| 20260507180004 | 27 | 326 | 9.7 | 17.7 | 0.00 | 0.00 | 0.00 | 69 | 1004.6 |
| 20260507174504 | 28 | 325 | 9.7 | 17.7 | 0.00 | 0.00 | 0.00 | 68 | 1004.6 |
| 20260507173004 | 28 | 319 | 9.7 | 17.7 | 0.00 | 0.00 | 0.00 | 67 | 1005.0 |
| 20260507171504 | 28 | 336 | 8.0 | 12.9 | 0.00 | 0.00 | 0.00 | 66 | 1005.1 |
| 20260507170004 | 28 | 335 | 8.0 | 14.5 | 0.00 | 0.00 | 0.00 | 68 | 1005.3 |
| 20260507164504 | 26 | 343 | 9.7 | 20.9 | 0.00 | 0.00 | 0.00 | 72 | 1005.5 |
| 20260507163004 | 28 | 335 | 8.0 | 17.7 | 0.00 | 0.00 | 0.00 | 69 | 1005.8 |
| 20260507161504 | 27 | 316 | 9.7 | 17.7 | 0.00 | 0.00 | 0.00 | 70 | 1006.5 |
| 20260507160004 | 26 | 345 | 9.7 | 22.5 | 0.00 | 0.00 | 0.00 | 73 | 1006.8 |
| 20260507154504 | 26 | 325 | 8.0 | 12.9 | 0.00 | 0.00 | 0.00 | 77 | 1007.2 |
| 20260507153004 | 25 | 316 | 8.0 | 16.1 | 0.00 | 0.00 | 0.00 | 78 | 1007.7 |
| 20260507151504 | 25 | 326 | 8.0 | 16.1 | 0.00 | 0.00 | 0.00 | 78 | 1008.0 |
| 20260507150005 | 26 | 322 | 8.0 | 17.7 | 0.00 | 0.00 | 0.00 | 76 | 1008.3 |
| 20260507144504 | 26 | 320 | 8.0 | 16.1 | 0.00 | 0.00 | 0.00 | 77 | 1008.8 |
| 20260507143004 | 25 | 323 | 9.7 | 16.1 | 0.00 | 0.00 | 0.00 | 77 | 1008.9 |
| 20260507141504 | 25 | 340 | 8.0 | 17.7 | 0.00 | 0.00 | 0.00 | 79 | 1009.3 |
| 20260507140005 | 25 | 333 | 9.7 | 17.7 | 0.00 | 0.00 | 0.00 | 78 | 1009.5 |
| 20260507134504 | 25 | 310 | 8.0 | 17.7 | 0.00 | 0.00 | 0.00 | 81 | 1009.7 |
| 20260507133004 | 25 | 318 | 9.7 | 17.7 | 0.00 | 0.00 | 0.00 | 82 | 1010.2 |
| 20260507131504 | 24 | 320 | 9.7 | 20.9 | 0.00 | 0.00 | 0.00 | 82 | 1010.4 |
| 20260507130004 | 24 | 310 | 9.7 | 17.7 | 0.00 | 0.00 | 0.00 | 82 | 1010.3 |
| 20260507124504 | 24 | 307 | 6.4 | 16.1 | 0.00 | 0.00 | 0.00 | 83 | 1010.6 |
| 20260507123004 | 24 | 324 | 8.0 | 17.7 | 0.00 | 0.00 | 0.00 | 84 | 1010.8 |
| 20260507121504 | 23 | 337 | 8.0 | 17.7 | 0.00 | 0.00 | 0.00 | 85 | 1011.0 |
| 20260507120005 | 23 | 329 | 6.4 | 11.3 | 0.00 | 0.00 | 0.00 | 87 | 1011.2 |
| 20260507114504 | 23 | 324 | 6.4 | 14.5 | 0.00 | 0.00 | 0.00 | 90 | 1011.1 |
| 20260507113004 | 23 | 316 | 6.4 | 16.1 | 0.00 | 0.00 | 0.00 | 92 | 1011.3 |
| 20260507111504 | 23 | 329 | 6.4 | 12.9 | 0.00 | 0.00 | 0.00 | 93 | 1011.1 |
| 20260507110005 | 22 | 345 | 4.8 | 8.0 | 0.00 | 0.00 | 0.00 | 95 | 1011.2 |
| 20260507104504 | 22 | 340 | 4.8 | 12.9 | 0.00 | 0.00 | 0.00 | 97 | 1011.0 |
| 20260507103004 | 22 | 331 | 4.8 | 8.0 | 0.00 | 0.00 | 0.00 | 97 | 1010.9 |
| 20260507101504 | 22 | 321 | 4.8 | 9.7 | 0.00 | 0.00 | 0.00 | 99 | 1011.0 |
| 20260507100004 | 22 | 329 | 4.8 | 9.7 | 0.00 | 0.00 | 0.00 | 99 | 1011.0 |
| 20260507094504 | 22 | 325 | 3.2 | 6.4 | 0.00 | 0.00 | 0.00 | 99 | 1011.0 |
| 20260507093004 | 22 | 322 | 4.8 | 6.4 | 0.00 | 0.00 | 0.00 | 99 | 1011.2 |
| 20260507091505 | 22 | 321 | 4.8 | 9.7 | 0.00 | 0.00 | 0.00 | 99 | 1010.9 |
| 20260507090005 | 22 | 331 | 4.8 | 8.0 | 0.00 | 0.00 | 0.00 | 99 | 1010.8 |
| 20260507084504 | 22 | 333 | 3.2 | 6.4 | 0.00 | 0.00 | 0.00 | 99 | 1010.7 |
| 20260507083005 | 22 | 332 | 3.2 | 6.4 | 0.00 | 0.00 | 0.00 | 99 | 1010.7 |
| 20260507081504 | 22 | 316 | 3.2 | 8.0 | 0.00 | 0.00 | 0.00 | 99 | 1010.5 |
| 20260507080005 | 22 | 338 | 3.2 | 8.0 | 0.00 | 0.00 | 0.00 | 99 | 1010.5 |
| 20260507074504 | 22 | 337 | 4.8 | 8.0 | 0.00 | 0.00 | 0.00 | 99 | 1010.4 |
| 20260507071504 | 22 | 328 | 3.2 | 12.9 | 0.00 | 0.00 | 0.00 | 99 | 1010.6 |
| 20260507070008 | 22 | 326 | 3.2 | 9.7 | 0.00 | 0.00 | 0.00 | 99 | 1010.7 |
| 20260507064504 | 22 | 328 | 3.2 | 9.7 | 0.00 | 0.00 | 0.00 | 99 | 1011.1 |
| 20260507063004 | 22 | 344 | 3.2 | 6.4 | 0.00 | 0.00 | 0.00 | 99 | 1011.3 |
| 20260507061504 | 22 | 333 | 3.2 | 6.4 | 0.00 | 0.00 | 0.00 | 99 | 1011.3 |
| 20260507060004 | 22 | 323 | 3.2 | 4.8 | 0.00 | 0.00 | 0.00 | 99 | 1011.7 |
| 20260507054505 | 22 | 341 | 3.2 | 6.4 | 0.00 | 0.00 | 0.00 | 99 | 1011.8 |
| 20260507053005 | 22 | 321 | 4.8 | 6.4 | 0.00 | 0.00 | 0.00 | 99 | 1012.0 |
| 20260507051504 | 22 | 331 | 3.2 | 6.4 | 0.00 | 0.00 | 0.00 | 99 | 1012.3 |
| 20260507050005 | 22 | 325 | 3.2 | 6.4 | 0.00 | 0.00 | 0.00 | 99 | 1012.3 |
| 20260507044504 | 22 | 317 | 3.2 | 6.4 | 0.00 | 0.00 | 0.00 | 99 | 1012.2 |
| 20260507043004 | 22 | 331 | 3.2 | 8.0 | 0.00 | 0.00 | 0.00 | 99 | 1012.6 |
| 20260507041504 | 22 | 324 | 3.2 | 6.4 | 0.00 | 0.00 | 0.00 | 99 | 1012.7 |
| 20260507040005 | 22 | 331 | 3.2 | 6.4 | 0.00 | 0.00 | 0.00 | 99 | 1012.9 |
| 20260507034504 | 22 | 325 | 4.8 | 8.0 | 0.00 | 0.00 | 0.00 | 99 | 1013.1 |
| 20260507033004 | 22 | 329 | 4.8 | 9.7 | 0.00 | 0.00 | 0.00 | 99 | 1013.2 |
| 20260507031504 | 22 | 324 | 4.8 | 11.3 | 0.00 | 0.00 | 0.00 | 99 | 1013.4 |
| 20260507030004 | 22 | 334 | 4.8 | 9.7 | 0.00 | 0.00 | 0.00 | 99 | 1013.3 |
| 20260507024504 | 22 | 329 | 4.8 | 12.9 | 0.00 | 0.00 | 0.00 | 99 | 1013.4 |
| 20260507023004 | 22 | 336 | 4.8 | 11.3 | 0.00 | 0.00 | 0.00 | 99 | 1013.7 |
| 20260507021504 | 22 | 345 | 4.8 | 11.3 | 0.00 | 0.00 | 0.00 | 99 | 1013.8 |
| 20260507020004 | 22 | 330 | 3.2 | 6.4 | 0.00 | 0.00 | 0.00 | 99 | 1013.9 |
| 20260507014504 | 22 | 336 | 3.2 | 8.0 | 0.00 | 0.00 | 0.00 | 99 | 1013.9 |
| 20260507013004 | 22 | 332 | 4.8 | 8.0 | 0.00 | 0.00 | 0.00 | 99 | 1013.9 |
| 20260507011504 | 22 | 315 | 3.2 | 6.4 | 0.00 | 0.00 | 0.00 | 99 | 1014.1 |
| 20260507010004 | 22 | 331 | 1.6 | 6.4 | 0.00 | 0.00 | 0.00 | 99 | 1014.0 |
| 20260507004504 | 22 | 322 | 3.2 | 6.4 | 0.00 | 0.00 | 0.00 | 99 | 1013.9 |
| 20260507003004 | 22 | 327 | 3.2 | 6.4 | 0.00 | 0.00 | 0.00 | 99 | 1014.2 |
| 20260507001504 | 22 | 334 | 4.8 | 11.3 | 0.00 | 0.00 | 0.00 | 99 | 1014.0 |
| 20260507000004 | 22 | 326 | 3.2 | 4.8 | 0.00 | 0.00 | 0.00 | 99 | 1014.3 |
| 20260506234504 | 22 | 327 | 1.6 | 6.4 | 0.00 | 0.00 | 0.00 | 99 | 1014.2 |
| 20260506233004 | 22 | 345 | 3.2 | 6.4 | 0.00 | 0.00 | 0.00 | 99 | 1014.3 |
| 20260506231504 | 22 | 339 | 4.8 | 8.0 | 0.00 | 0.00 | 0.00 | 99 | 1014.3 |
| 20260506230004 | 22 | 328 | 4.8 | 8.0 | 0.00 | 0.00 | 0.00 | 99 | 1014.1 |
| 20260506224504 | 22 | 317 | 4.8 | 8.0 | 0.00 | 0.00 | 0.00 | 99 | 1013.9 |
| 20260506223004 | 23 | 331 | 3.2 | 6.4 | 0.00 | 0.00 | 0.00 | 99 | 1014.0 |
| 20260506221504 | 23 | 323 | 3.2 | 6.4 | 0.00 | 0.00 | 0.00 | 100 | 1013.9 |
| 20260506220004 | 23 | 329 | 4.8 | 8.0 | 0.00 | 0.00 | 0.00 | 97 | 1013.9 |
| 20260506214504 | 23 | 320 | 4.8 | 8.0 | 0.00 | 0.00 | 0.00 | 96 | 1013.6 |